Time,TemperatureF,DewpointF,PressureIn,WindDirection,WindDirectionDegrees,WindSpeedMPH,WindSpeedGustMPH,Humidity,HourlyPrecipIn,Conditions,Clouds,dailyrainin,SoftwareType,DateUTC
2013-11-01 00:06:00,60.1,51.1,30.15,North,359,1.1,2.9,72,-99.99,,,-99.99,PyWeather,2013-10-31 23:06:00,
2013-11-01 00:16:00,60.3,51.6,30.15,North,359,-999.0,0.9,73,-99.99,,,-99.99,PyWeather,2013-10-31 23:16:00,
2013-11-01 00:26:00,60.1,51.4,30.15,North,1,1.1,2.9,73,-99.99,,,-99.99,PyWeather,2013-10-31 23:26:00,
2013-11-01 00:36:00,59.9,51.6,30.15,North,360,2.0,4.0,74,-99.99,,,-99.99,PyWeather,2013-10-31 23:36:00,
2013-11-01 00:46:00,59.7,51.8,30.15,North,-999,1.6,2.9,75,-99.99,,,-99.99,PyWeather,2013-10-31 23:46:00,
2013-11-01 00:55:00,59.7,51.8,30.15,North,-999,1.3,2.9,75,-99.99,,,-99.99,PyWeather,2013-10-31 23:55:00,
2013-11-01 01:05:00,59.5,51.6,30.14,North,360,1.1,2.9,75,-99.99,,,-99.99,PyWeather,2013-11-01 00:05:00,
2013-11-01 01:15:00,59.7,51.8,30.14,North,360,0.9,2.9,75,-99.99,,,-99.99,PyWeather,2013-11-01 00:15:00,
2013-11-01 01:25:00,59.5,51.6,30.14,North,360,1.1,2.9,75,-99.99,,,-99.99,PyWeather,2013-11-01 00:25:00,
2013-11-01 01:35:00,59.2,51.3,30.14,North,360,1.1,2.9,75,-99.99,,,-99.99,PyWeather,2013-11-01 00:35:00,
2013-11-01 01:44:00,59.0,51.4,30.14,North,-999,1.3,2.9,76,-99.99,,,-99.99,PyWeather,2013-11-01 00:44:00,
2013-11-01 01:54:00,58.8,51.3,30.13,North,360,0.7,2.0,76,-99.99,,,-99.99,PyWeather,2013-11-01 00:54:00,
2013-11-01 02:04:00,58.6,51.4,30.13,North,360,0.7,2.0,77,-99.99,,,-99.99,PyWeather,2013-11-01 01:04:00,
2013-11-01 02:14:00,58.5,50.9,30.13,North,359,1.3,4.0,76,-99.99,,,-99.99,PyWeather,2013-11-01 01:14:00,
2013-11-01 02:23:00,58.3,50.7,30.13,North,359,-999.0,0.9,76,-99.99,,,-99.99,PyWeather,2013-11-01 01:23:00,
2013-11-01 02:33:00,58.1,50.5,30.13,East,90,-999.0,-999.0,76,-99.99,,,-99.99,PyWeather,2013-11-01 01:33:00,
2013-11-01 02:43:00,58.1,50.5,30.12,East,90,-999.0,-999.0,76,-99.99,,,-99.99,PyWeather,2013-11-01 01:43:00,
2013-11-01 02:53:00,58.1,50.5,30.12,East,90,-999.0,-999.0,76,-99.99,,,-99.99,PyWeather,2013-11-01 01:53:00,
2013-11-01 03:03:00,58.1,50.5,30.12,North,360,-999.0,0.9,76,-99.99,,,-99.99,PyWeather,2013-11-01 02:03:00,
2013-11-01 03:12:00,58.3,50.4,30.11,North,360,0.7,2.9,75,-99.99,,,-99.99,PyWeather,2013-11-01 02:12:00,
2013-11-01 03:22:00,57.7,49.8,30.11,North,360,0.7,2.9,75,-99.99,,,-99.99,PyWeather,2013-11-01 02:22:00,
2013-11-01 03:32:00,57.6,50.0,30.11,North,360,0.4,2.0,76,-99.99,,,-99.99,PyWeather,2013-11-01 02:32:00,
2013-11-01 03:42:00,57.2,49.6,30.11,East,90,-999.0,-999.0,76,-99.99,,,-99.99,PyWeather,2013-11-01 02:42:00,
2013-11-01 03:52:00,57.2,50.0,30.11,North,359,-999.0,0.9,77,-99.99,,,-99.99,PyWeather,2013-11-01 02:52:00,
2013-11-01 04:01:00,57.0,49.5,30.11,North,-999,0.7,2.0,76,-99.99,,,-99.99,PyWeather,2013-11-01 03:01:00,
2013-11-01 04:11:00,55.9,49.1,30.11,East,90,-999.0,-999.0,78,-99.99,,,-99.99,PyWeather,2013-11-01 03:11:00,
2013-11-01 04:21:00,55.8,49.6,30.10,North,359,0.2,0.9,80,-99.99,,,-99.99,PyWeather,2013-11-01 03:21:00,
2013-11-01 04:31:00,56.3,49.8,30.10,North,360,0.4,2.0,79,-99.99,,,-99.99,PyWeather,2013-11-01 03:31:00,
2013-11-01 04:41:00,56.7,49.8,30.11,North,359,-999.0,0.9,78,-99.99,,,-99.99,PyWeather,2013-11-01 03:41:00,
2013-11-01 04:50:00,56.5,49.6,30.11,East,90,-999.0,-999.0,78,-99.99,,,-99.99,PyWeather,2013-11-01 03:50:00,
2013-11-01 05:00:00,56.3,49.5,30.11,North,359,-999.0,0.9,78,-99.99,,,-99.99,PyWeather,2013-11-01 04:00:00,
2013-11-01 05:05:00,56.3,49.5,30.11,North,359,0.2,0.9,78,-99.99,,,-99.99,PyWeather,2013-11-01 04:05:00,
2013-11-01 05:10:00,56.1,49.3,30.11,North,359,0.2,0.9,78,-99.99,,,-99.99,PyWeather,2013-11-01 04:10:00,
2013-11-01 05:15:00,55.9,49.5,30.11,North,1,-999.0,0.9,79,-99.99,,,-99.99,PyWeather,2013-11-01 04:15:00,
2013-11-01 05:25:00,55.9,49.1,30.12,North,-999,1.3,2.9,78,-99.99,,,-99.99,PyWeather,2013-11-01 04:25:00,
2013-11-01 05:34:00,55.6,49.1,30.12,NW,319,2.7,4.9,79,-99.99,,,-99.99,PyWeather,2013-11-01 04:34:00,
2013-11-01 05:39:00,55.4,48.9,30.12,WNW,301,3.1,4.9,79,-99.99,,,-99.99,PyWeather,2013-11-01 04:39:00,
2013-11-01 05:44:00,55.4,49.3,30.13,NW,304,3.1,4.9,80,-99.99,,,-99.99,PyWeather,2013-11-01 04:44:00,
2013-11-01 05:54:00,55.2,49.1,30.12,NW,311,3.4,4.9,80,-99.99,,,-99.99,PyWeather,2013-11-01 04:54:00,
2013-11-01 06:04:00,55.2,48.7,30.13,WNW,285,3.6,6.1,79,-99.99,,,-99.99,PyWeather,2013-11-01 05:04:00,
2013-11-01 06:14:00,55.2,48.7,30.12,NW,315,1.6,4.0,79,-99.99,,,-99.99,PyWeather,2013-11-01 05:14:00,
2013-11-01 06:23:00,55.2,48.7,30.12,WNW,299,2.9,4.0,79,-99.99,,,-99.99,PyWeather,2013-11-01 05:23:00,
2013-11-01 06:33:00,55.4,48.7,30.12,WNW,294,1.6,2.9,78,-99.99,,,-99.99,PyWeather,2013-11-01 05:33:00,
2013-11-01 06:43:00,55.4,48.7,30.11,West,263,-999.0,0.9,78,-99.99,,,-99.99,PyWeather,2013-11-01 05:43:00,
2013-11-01 06:53:00,55.2,48.6,30.11,West,281,1.6,2.9,78,-99.99,,,-99.99,PyWeather,2013-11-01 05:53:00,
2013-11-01 07:03:00,55.8,48.7,30.12,WNW,282,0.2,0.9,77,-99.99,,,-99.99,PyWeather,2013-11-01 06:03:00,
2013-11-01 07:12:00,55.8,48.7,30.12,North,359,-999.0,0.9,77,-99.99,,,-99.99,PyWeather,2013-11-01 06:12:00,
2013-11-01 07:22:00,55.6,48.6,30.12,East,90,-999.0,-999.0,77,-99.99,,,-99.99,PyWeather,2013-11-01 06:22:00,
2013-11-01 07:32:00,55.6,48.6,30.13,WNW,300,1.1,2.0,77,-99.99,,,-99.99,PyWeather,2013-11-01 06:32:00,
2013-11-01 07:42:00,56.1,48.7,30.13,WNW,291,2.0,2.9,76,-99.99,,,-99.99,PyWeather,2013-11-01 06:42:00,
2013-11-01 07:51:00,55.8,48.4,30.14,West,281,1.6,2.9,76,-99.99,,,-99.99,PyWeather,2013-11-01 06:51:00,
2013-11-01 08:01:00,55.8,48.7,30.14,West,281,2.2,2.9,77,-99.99,,,-99.99,PyWeather,2013-11-01 07:01:00,
2013-11-01 08:11:00,56.7,48.7,30.14,WNW,300,0.9,2.9,75,-99.99,,,-99.99,PyWeather,2013-11-01 07:11:00,
2013-11-01 08:21:00,57.9,48.6,30.14,West,274,2.5,4.0,71,-99.99,,,-99.99,PyWeather,2013-11-01 07:21:00,
2013-11-01 08:31:00,58.3,48.6,30.15,West,278,2.5,4.0,70,-99.99,,,-99.99,PyWeather,2013-11-01 07:31:00,
2013-11-01 08:40:00,58.5,48.7,30.15,West,275,2.5,4.0,70,-99.99,,,-99.99,PyWeather,2013-11-01 07:40:00,
2013-11-01 08:50:00,58.8,48.7,30.14,West,267,2.9,4.9,69,-99.99,,,-99.99,PyWeather,2013-11-01 07:50:00,
2013-11-01 09:00:00,59.0,48.9,30.15,West,261,1.6,2.9,69,-99.99,,,-99.99,PyWeather,2013-11-01 08:00:00,
2013-11-01 09:10:00,59.9,49.3,30.15,West,261,1.8,4.9,68,-99.99,,,-99.99,PyWeather,2013-11-01 08:10:00,
2013-11-01 09:20:00,60.8,49.8,30.16,West,261,2.9,4.9,67,-99.99,,,-99.99,PyWeather,2013-11-01 08:20:00,
2013-11-01 09:29:00,61.3,50.4,30.16,West,261,3.1,6.1,67,-99.99,,,-99.99,PyWeather,2013-11-01 08:29:00,
2013-11-01 09:39:00,62.1,50.9,30.15,West,261,2.7,4.9,67,-99.99,,,-99.99,PyWeather,2013-11-01 08:39:00,
2013-11-01 09:49:00,63.1,50.7,30.15,WSW,251,3.1,6.1,64,-99.99,,,-99.99,PyWeather,2013-11-01 08:49:00,
2013-11-01 09:59:00,64.0,50.7,30.15,WSW,254,3.1,4.9,62,-99.99,,,-99.99,PyWeather,2013-11-01 08:59:00,
2013-11-01 10:09:00,64.8,50.2,30.15,West,272,1.8,4.0,59,-99.99,,,-99.99,PyWeather,2013-11-01 09:09:00,
2013-11-01 10:18:00,65.3,49.6,30.15,West,277,2.0,4.0,57,-99.99,,,-99.99,PyWeather,2013-11-01 09:18:00,
2013-11-01 10:28:00,66.0,49.8,30.15,WSW,256,2.7,4.9,56,-99.99,,,-99.99,PyWeather,2013-11-01 09:28:00,
2013-11-01 10:38:00,66.6,50.4,30.15,West,262,4.0,8.1,56,-99.99,,,-99.99,PyWeather,2013-11-01 09:38:00,
2013-11-01 10:48:00,67.1,50.9,30.15,WSW,258,2.5,7.0,56,-99.99,,,-99.99,PyWeather,2013-11-01 09:48:00,
2013-11-01 10:58:00,67.3,50.5,30.15,WSW,253,3.1,7.0,55,-99.99,,,-99.99,PyWeather,2013-11-01 09:58:00,
2013-11-01 11:07:00,67.6,50.9,30.15,West,259,3.8,8.1,55,-99.99,,,-99.99,PyWeather,2013-11-01 10:07:00,
2013-11-01 11:17:00,68.0,50.7,30.15,WSW,250,4.5,9.0,54,-99.99,,,-99.99,PyWeather,2013-11-01 10:17:00,
2013-11-01 11:27:00,68.4,51.1,30.15,SW,226,4.9,8.1,54,-99.99,,,-99.99,PyWeather,2013-11-01 10:27:00,
2013-11-01 11:37:00,68.5,51.3,30.14,West,261,3.4,8.1,54,-99.99,,,-99.99,PyWeather,2013-11-01 10:37:00,
2013-11-01 11:46:00,68.5,50.2,30.14,West,262,5.2,10.1,52,-99.99,,,-99.99,PyWeather,2013-11-01 10:46:00,
2013-11-01 11:56:00,68.9,51.6,30.14,SW,216,4.3,8.1,54,-99.99,,,-99.99,PyWeather,2013-11-01 10:56:00,
2013-11-01 12:06:00,69.3,51.4,30.14,SW,231,4.3,8.1,53,-99.99,,,-99.99,PyWeather,2013-11-01 11:06:00,
2013-11-01 12:16:00,69.3,52.0,30.14,SW,228,4.5,9.0,54,-99.99,,,-99.99,PyWeather,2013-11-01 11:16:00,
2013-11-01 12:26:00,69.4,51.6,30.13,WSW,258,4.7,10.1,53,-99.99,,,-99.99,PyWeather,2013-11-01 11:26:00,
2013-11-01 12:35:00,69.8,52.3,30.13,WSW,243,2.0,9.0,54,-99.99,,,-99.99,PyWeather,2013-11-01 11:35:00,
2013-11-01 12:45:00,70.2,53.2,30.12,SSW,212,3.8,8.1,55,-99.99,,,-99.99,PyWeather,2013-11-01 11:45:00,
2013-11-01 12:55:00,70.0,53.6,30.12,WSW,253,3.8,8.1,56,-99.99,,,-99.99,PyWeather,2013-11-01 11:55:00,
2013-11-01 13:05:00,70.0,54.0,30.11,West,260,4.9,9.0,57,-99.99,,,-99.99,PyWeather,2013-11-01 12:05:00,
2013-11-01 13:15:00,69.8,53.4,30.11,WSW,244,5.4,10.1,56,-99.99,,,-99.99,PyWeather,2013-11-01 12:15:00,
2013-11-01 13:24:00,70.3,52.3,30.10,West,262,4.5,11.0,53,-99.99,,,-99.99,PyWeather,2013-11-01 12:24:00,
2013-11-01 13:34:00,70.9,51.3,30.10,West,259,7.4,11.9,50,-99.99,,,-99.99,PyWeather,2013-11-01 12:34:00,
2013-11-01 13:44:00,70.9,51.3,30.10,WSW,237,3.4,9.0,50,-99.99,,,-99.99,PyWeather,2013-11-01 12:44:00,
2013-11-01 13:54:00,70.7,51.1,30.09,SW,236,4.7,9.0,50,-99.99,,,-99.99,PyWeather,2013-11-01 12:54:00,
2013-11-01 14:04:00,71.2,51.6,30.09,SW,228,4.9,9.0,50,-99.99,,,-99.99,PyWeather,2013-11-01 13:04:00,
2013-11-01 14:13:00,71.2,51.1,30.09,WSW,246,6.5,11.0,49,-99.99,,,-99.99,PyWeather,2013-11-01 13:13:00,
2013-11-01 14:23:00,71.4,51.3,30.09,SW,228,3.6,9.0,49,-99.99,,,-99.99,PyWeather,2013-11-01 13:23:00,
2013-11-01 14:33:00,71.6,51.4,30.09,SW,214,5.6,10.1,49,-99.99,,,-99.99,PyWeather,2013-11-01 13:33:00,
2013-11-01 14:43:00,71.4,51.3,30.09,WSW,242,4.9,10.1,49,-99.99,,,-99.99,PyWeather,2013-11-01 13:43:00,
2013-11-01 14:52:00,70.9,50.7,30.09,SSW,213,4.0,8.1,49,-99.99,,,-99.99,PyWeather,2013-11-01 13:52:00,
2013-11-01 15:02:00,71.6,50.9,30.08,SW,224,4.7,11.0,48,-99.99,,,-99.99,PyWeather,2013-11-01 14:02:00,
2013-11-01 15:12:00,71.2,50.5,30.08,SW,235,5.6,11.0,48,-99.99,,,-99.99,PyWeather,2013-11-01 14:12:00,
2013-11-01 15:22:00,71.2,50.5,30.08,SW,233,4.7,10.1,48,-99.99,,,-99.99,PyWeather,2013-11-01 14:22:00,
2013-11-01 15:32:00,71.4,50.7,30.08,WSW,258,3.4,6.1,48,-99.99,,,-99.99,PyWeather,2013-11-01 14:32:00,
2013-11-01 15:41:00,71.6,51.4,30.08,WSW,255,5.6,10.1,49,-99.99,,,-99.99,PyWeather,2013-11-01 14:41:00,
2013-11-01 15:51:00,70.7,52.2,30.08,SW,222,7.0,10.1,52,-99.99,,,-99.99,PyWeather,2013-11-01 14:51:00,
2013-11-01 16:01:00,70.5,50.9,30.08,WSW,246,5.8,11.9,50,-99.99,,,-99.99,PyWeather,2013-11-01 15:01:00,
2013-11-01 16:11:00,70.3,49.1,30.08,WSW,242,6.3,11.9,47,-99.99,,,-99.99,PyWeather,2013-11-01 15:11:00,
2013-11-01 16:21:00,69.8,49.3,30.08,SW,234,4.7,13.0,48,-99.99,,,-99.99,PyWeather,2013-11-01 15:21:00,
2013-11-01 16:30:00,69.3,49.8,30.08,WSW,245,7.9,11.9,50,-99.99,,,-99.99,PyWeather,2013-11-01 15:30:00,
2013-11-01 16:40:00,69.1,50.7,30.08,WSW,245,5.8,11.0,52,-99.99,,,-99.99,PyWeather,2013-11-01 15:40:00,
2013-11-01 16:50:00,69.1,51.3,30.08,WSW,246,5.6,11.0,53,-99.99,,,-99.99,PyWeather,2013-11-01 15:50:00,
2013-11-01 17:00:00,68.9,52.0,30.07,WSW,249,4.9,11.0,55,-99.99,,,-99.99,PyWeather,2013-11-01 16:00:00,
2013-11-01 17:10:00,68.2,52.3,30.08,WSW,249,5.2,11.0,57,-99.99,,,-99.99,PyWeather,2013-11-01 16:10:00,
2013-11-01 17:19:00,67.5,53.1,30.08,WSW,248,6.3,13.0,60,-99.99,,,-99.99,PyWeather,2013-11-01 16:19:00,
2013-11-01 17:29:00,66.6,53.1,30.08,WSW,252,7.6,11.9,62,-99.99,,,-99.99,PyWeather,2013-11-01 16:29:00,
2013-11-01 17:39:00,65.8,52.9,30.08,WSW,247,4.9,9.0,63,-99.99,,,-99.99,PyWeather,2013-11-01 16:39:00,
2013-11-01 17:49:00,65.3,52.3,30.08,West,261,2.5,6.1,63,-99.99,,,-99.99,PyWeather,2013-11-01 16:49:00,
2013-11-01 17:58:00,64.8,52.3,30.09,West,280,2.5,4.9,64,-99.99,,,-99.99,PyWeather,2013-11-01 16:58:00,
2013-11-01 18:08:00,64.4,52.3,30.09,West,261,2.5,7.0,65,-99.99,,,-99.99,PyWeather,2013-11-01 17:08:00,
2013-11-01 18:18:00,63.9,52.3,30.09,West,278,0.9,2.9,66,-99.99,,,-99.99,PyWeather,2013-11-01 17:18:00,
2013-11-01 18:24:00,63.7,52.2,30.09,West,277,2.0,2.9,66,-99.99,,,-99.99,PyWeather,2013-11-01 17:24:00,
2013-11-01 18:34:00,63.0,51.8,30.09,West,265,1.8,4.9,67,-99.99,,,-99.99,PyWeather,2013-11-01 17:34:00,
2013-11-01 18:43:00,62.4,51.8,30.09,West,276,2.9,4.9,68,-99.99,,,-99.99,PyWeather,2013-11-01 17:43:00,
2013-11-01 18:53:00,62.1,51.8,30.09,WNW,295,2.9,4.9,69,-99.99,,,-99.99,PyWeather,2013-11-01 17:53:00,
2013-11-01 19:03:00,61.9,52.0,30.09,WNW,301,0.2,0.9,70,-99.99,,,-99.99,PyWeather,2013-11-01 18:03:00,
2013-11-01 19:13:00,62.1,51.8,30.09,West,270,0.2,2.0,69,-99.99,,,-99.99,PyWeather,2013-11-01 18:13:00,
2013-11-01 19:23:00,62.1,51.8,30.09,West,266,0.2,2.0,69,-99.99,,,-99.99,PyWeather,2013-11-01 18:23:00,
2013-11-01 19:33:00,61.9,52.0,30.09,East,90,-999.0,-999.0,70,-99.99,,,-99.99,PyWeather,2013-11-01 18:33:00,
2013-11-01 19:42:00,61.7,51.8,30.09,WSW,252,-999.0,0.9,70,-99.99,,,-99.99,PyWeather,2013-11-01 18:42:00,
2013-11-01 19:52:00,61.3,51.8,30.09,West,275,0.2,0.9,71,-99.99,,,-99.99,PyWeather,2013-11-01 18:52:00,
2013-11-01 20:02:00,61.0,51.8,30.09,WNW,285,0.4,2.0,72,-99.99,,,-99.99,PyWeather,2013-11-01 19:02:00,
2013-11-01 20:12:00,61.0,52.3,30.09,WNW,286,1.1,2.9,73,-99.99,,,-99.99,PyWeather,2013-11-01 19:12:00,
2013-11-01 20:22:00,61.5,53.2,30.08,WNW,294,0.2,2.0,74,-99.99,,,-99.99,PyWeather,2013-11-01 19:22:00,
2013-11-01 20:31:00,61.5,53.2,30.09,WNW,286,1.1,2.9,74,-99.99,,,-99.99,PyWeather,2013-11-01 19:31:00,
2013-11-01 20:41:00,61.7,53.2,30.09,WNW,282,0.7,2.0,74,-99.99,,,-99.99,PyWeather,2013-11-01 19:41:00,
2013-11-01 20:51:00,61.3,53.1,30.09,WNW,284,0.2,2.0,74,-99.99,,,-99.99,PyWeather,2013-11-01 19:51:00,
2013-11-01 21:01:00,61.2,53.2,30.09,East,90,-999.0,-999.0,75,-99.99,,,-99.99,PyWeather,2013-11-01 20:01:00,
2013-11-01 21:11:00,61.2,53.2,30.08,WNW,288,-999.0,0.9,75,-99.99,,,-99.99,PyWeather,2013-11-01 20:11:00,
2013-11-01 21:20:00,60.8,52.9,30.09,East,90,-999.0,-999.0,75,-99.99,,,-99.99,PyWeather,2013-11-01 20:20:00,
2013-11-01 21:30:00,60.3,52.3,30.09,East,90,-999.0,-999.0,75,-99.99,,,-99.99,PyWeather,2013-11-01 20:30:00,
2013-11-01 21:40:00,59.9,52.3,30.09,East,90,-999.0,-999.0,76,-99.99,,,-99.99,PyWeather,2013-11-01 20:40:00,
2013-11-01 21:50:00,59.9,53.1,30.09,WNW,291,0.2,2.0,78,-99.99,,,-99.99,PyWeather,2013-11-01 20:50:00,
2013-11-01 22:00:00,60.1,53.6,30.09,WNW,288,0.4,2.0,79,-99.99,,,-99.99,PyWeather,2013-11-01 21:00:00,
2013-11-01 22:10:00,60.4,54.0,30.09,East,90,-999.0,-999.0,79,-99.99,,,-99.99,PyWeather,2013-11-01 21:10:00,
2013-11-01 22:19:00,60.8,54.3,30.09,WNW,293,1.6,4.0,79,-99.99,,,-99.99,PyWeather,2013-11-01 21:19:00,
2013-11-01 22:29:00,61.7,54.5,30.09,WNW,303,0.7,2.9,77,-99.99,,,-99.99,PyWeather,2013-11-01 21:29:00,
2013-11-01 22:39:00,61.5,54.3,30.09,WNW,284,2.2,4.0,77,-99.99,,,-99.99,PyWeather,2013-11-01 21:39:00,
2013-11-01 22:49:00,60.4,53.6,30.09,West,281,1.1,2.9,78,-99.99,,,-99.99,PyWeather,2013-11-01 21:49:00,
2013-11-01 22:54:00,60.1,53.2,30.09,WNW,292,1.3,2.9,78,-99.99,,,-99.99,PyWeather,2013-11-01 21:54:00,
2013-11-01 23:04:00,59.7,53.6,30.09,WNW,286,1.1,2.0,80,-99.99,,,-99.99,PyWeather,2013-11-01 22:04:00,
2013-11-01 23:14:00,60.1,54.1,30.09,WNW,298,1.8,2.9,81,-99.99,,,-99.99,PyWeather,2013-11-01 22:14:00,
2013-11-01 23:23:00,60.3,54.1,30.09,WNW,292,2.2,4.9,80,-99.99,,,-99.99,PyWeather,2013-11-01 22:23:00,
2013-11-01 23:33:00,60.8,54.3,30.08,WNW,297,0.9,2.9,79,-99.99,,,-99.99,PyWeather,2013-11-01 22:33:00,
2013-11-01 23:43:00,60.3,53.1,30.08,WSW,252,-999.0,0.9,77,-99.99,,,-99.99,PyWeather,2013-11-01 22:43:00,
2013-11-01 23:53:00,59.7,52.9,30.08,WNW,282,0.7,2.0,78,-99.99,,,-99.99,PyWeather,2013-11-01 22:53:00,